Location: ?ern� Novina
(50.6762°N, 14.8696°E)
Time: 18:03:23
(UTC+00:00)

ERBS - Pass Details

Date: 03 March 2021
Orbit: 408 x 412 km, 57.0° (Epoch: 13 April)

Event Time Altitude Azimuth Distance (km) Brightness Sun altitude
Rises 18:57:42 0° 270° (W) 2,352 7.4 -21.5°
Reaches altitude 10° 18:59:56 10° 281° (WNW) 1,489 6.2 -21.9°
Maximum altitude 19:02:57 31° 347° (NNW) 749 3.7 -22.3°
Enters shadow 19:03:04 31° 351° (N) 751 3.7 -22.3°
